www.pogodaiklimat.ru

Погода и климат >> Архив погоды >> Бразилия >> Минас-Жерайс >> Итаобин


ПОГОДА в Итаобине

  • Прогноз погоды в Итаобине
  • Монитор погоды в Итаобине

АРХИВ ПОГОДЫ в Итаобине

Время (UTC), дата Ветер
(напр.,м/с)
 
Видим.   Явления Облачность Т
(С)
Тd
(С)
f
(%)
Тe
(С)
Тes
(С)
Комфортность P
(гПа)
Po
(гПа)
Тmin
(С)
Tmax
(С)
R
(мм)
R24
(мм)
S
(см)
01 16.04 В 1
{3}
н/о н/о +27.0 +21.5 72 +34 +34 очень
душно
1015.4 984.5
02 16.04 В 1
{4}
н/о н/о +25.5 +20.7 75 +32 +32 очень
душно
1015.7 984.6
03 16.04 ЮВ 1
{2}
н/о н/о +25.1 +20.9 78 +32 +32 очень
душно
1015.8 984.7
04 16.04 ЮВ 1
{2}
н/о н/о +24.7 +21.3 81 +31 +31 очень
душно
1015.4 984.2
05 16.04 В 1
{2}
н/о н/о +24.8 +21.5 82 +32 +32 очень
душно
1014.9 983.8
06 16.04 В 1
{2}
н/о н/о +24.5 +21.6 84 +31 +31 очень
душно
1014.9 983.7
07 16.04 В 1
{2}
н/о н/о +24.2 +21.6 85 +31 +31 очень
душно
1015.0 983.8
08 16.04 В 1
{2}
н/о н/о +23.7 +21.5 87 +30 +30 очень
душно
1015.2 983.9
09 16.04 В 1
{2}
н/о н/о +23.3 +21.4 89 +31 +31 очень
душно
1015.8 984.5
10 16.04 В 1
{2}
н/о н/о +24.6 +22.0 85 +32 +32 очень
душно
1016.4 985.2
11 16.04 СВ 1
{1}
н/о н/о +26.1 +22.4 80 +34 +34 очень
душно
1016.9 985.8
12 16.04 В 1
{2}
н/о н/о +27.4 +21.3 69 +35 +35 очень
душно
1017.0 986.1
13 16.04 СВ 2
{4}
н/о н/о +29.2 +21.1 62 +37 +37 очень
душно
1016.6 985.9
14 16.04 СВ 2
{4}
н/о н/о +30.1 +19.7 54 +36 +36 очень
душно
1015.6 985.0
15 16.04 СВ 2
{4}
н/о н/о +31.1 +19.9 51 +37 +37 очень
душно
1014.3 983.8
17 16.04 СВ 2
{4}
н/о н/о +33.0 +17.6 40 +37 +37 очень
душно
1011.5 981.3
18 16.04 СВ 2
{4}
н/о н/о +32.9 +17.8 41 +37 +37 очень
душно
1010.7 980.5
19 16.04 СВ 2
{4}
н/о н/о +32.2 +18.1 43 +37 +37 очень
душно
1010.5 980.2
20 16.04 СВ 1
{3}
н/о н/о +31.6 +18.1 45 +36 +36 очень
душно
1010.7 980.4
22 16.04 В 2
{3}
н/о н/о +28.0 +19.4 60 +34 +34 очень
душно
1011.9 981.2
23 16.04 В 1
{3}
н/о н/о +26.5 +20.5 70 +33 +33 очень
душно
1013.2 982.3
00 17.04 В 1
{2}
н/о н/о +26.5 +20.9 71 +33 +33 очень
душно
1013.6 982.7
01 17.04 ЮВ 1
{2}
н/о н/о +26.4 +21.0 72 +33 +33 очень
душно
1013.9 983.0
02 17.04 ЮВ 1
{2}
н/о н/о +25.2 +20.9 77 +32 +32 очень
душно
1014.2 983.1
03 17.04 ЮВ 1
{1}
н/о н/о +25.0 +21.0 78 +31 +31 очень
душно
1014.1 983.0
04 17.04 штиль 0
{1}
н/о н/о +24.9 +21.3 80 +31 +31 очень
душно
1013.6 982.5
05 17.04 штиль 0
{1}
н/о н/о +24.7 +21.2 81 +31 +31 очень
душно
1013.2 982.1
06 17.04 ЮВ 1
{1}
н/о н/о +24.5 +21.2 82 +31 +31 очень
душно
1012.8 981.7
07 17.04 ЮВ 1
{2}
н/о н/о +23.8 +21.0 84 +30 +30 очень
душно
1012.9 981.7
08 17.04 Ю 1
{1}
н/о н/о +24.0 +21.2 84 +30 +30 очень
душно
1012.8 981.6
09 17.04 ЮВ 1
{2}
н/о н/о +24.1 +21.3 84 +30 +30 очень
душно
1013.1 981.9
10 17.04 штиль 0
{1}
н/о н/о +24.7 +21.9 84 +32 +32 очень
душно
1013.6 982.5
11 17.04 штиль 0
{2}
н/о н/о +25.6 +21.9 80 +33 +33 очень
душно
1014.0 983.0
12 17.04 СВ 1
{2}
н/о н/о +27.1 +21.2 70 +34 +34 очень
душно
1014.2 983.3
13 17.04 СЗ 1
{2}
н/о н/о +27.7 +20.7 66 +35 +35 очень
душно
1014.4 983.6
14 17.04 ЮЗ 1
{2}
н/о н/о +28.7 +20.6 62 +36 +36 очень
душно
1013.8 983.1
15 17.04 З 1
{3}
н/о н/о +30.8 +20.5 54 +38 +38 очень
душно
1012.5 982.0
17 17.04 СЗ 1
{2}
н/о н/о +32.6 +19.0 45 +38 +38 очень
душно
1010.4 980.2
18 17.04 СЗ 1
{2}
н/о н/о +32.8 +18.7 43 +38 +38 очень
душно
1009.2 979.0
19 17.04 штиль 0
{2}
н/о н/о +32.2 +18.1 43 +37 +37 очень
душно
1009.0 978.8
20 17.04 штиль 0
{1}
н/о н/о +31.4 +20.2 51 +38 +38 очень
душно
1009.7 979.4
21 17.04 ЮВ 1
{1}
н/о н/о +28.9 +19.9 58 +35 +35 очень
душно
1010.6 980.0
22 17.04 Ю 1
{2}
н/о н/о +27.5 +19.8 63 +33 +33 очень
душно
1011.4 980.6
23 17.04 ЮВ 1
{3}
н/о н/о +26.4 +20.1 68 +32 +32 очень
душно
1012.0 981.1
00 18.04 ЮВ 1
{3}
н/о н/о +25.8 +20.5 73 +32 +32 очень
душно
1012.5 981.5
01 18.04 штиль 0
{2}
н/о н/о +24.6 +20.3 77 +30 +30 очень
душно
1012.4 981.3
02 18.04 Ю 1
{2}
н/о н/о +23.9 +20.2 80 +30 +30 очень
душно
1012.2 981.1
03 18.04 Ю 1
{3}
н/о н/о +23.9 +20.3 80 +30 +30 очень
душно
1012.1 981.0
04 18.04 ЮВ 1
{3}
н/о н/о +23.6 +20.3 82 +29 +29 душно 1012.0 980.8
05 18.04 штиль 0
{2}
н/о н/о +23.4 +20.4 83 +31 +31 очень
душно
1011.4 980.2
06 18.04 ЮВ 1
{2}
н/о н/о +22.8 +20.2 85 +29 +29 очень
душно
1011.3 980.1
07 18.04 Ю 1
{2}
н/о н/о +22.6 +20.2 86 +29 +29 очень
душно
1011.6 980.3
09 18.04 штиль 0
{1}
н/о н/о +21.9 +19.9 88 +28 +28 душно 1012.3 980.9
10 18.04 штиль 0
{2}
н/о н/о +22.8 +20.5 87 +30 +30 очень
душно
1012.8 981.5
11 18.04 штиль 0 н/о н/о +25.1 +21.7 81 +32 +32 очень
душно
1012.8 981.8
12 18.04 штиль 0
{1}
н/о н/о +28.0 +22.1 70 +36 +36 очень
душно
1012.5 981.8
13 18.04 штиль 0
{2}
н/о н/о +30.2 +22.1 62 +39 +39 очень
душно
1012.0 981.5
14 18.04 З 1
{2}
н/о н/о +32.2 +21.2 52 +40 +40 очень
душно
1011.1 980.8
15 18.04 З 1
{3}
н/о н/о +34.2 +20.2 44 +41 +41 опасность
перегрева
1009.6 979.6
16 18.04 З 2
{4}
н/о н/о +35.4 +17.8 35 +39 +39 очень
душно
1008.3 978.4
17 18.04 С 1
{4}
н/о н/о +36.1 +17.8 34 +40 +40 очень
душно
1007.1 977.3
18 18.04 ЮЗ 2
{3}
н/о н/о +35.9 +17.5 34 +39 +39 очень
душно
1006.3 976.5
19 18.04 штиль 0
{3}
н/о н/о +36.2 +17.2 33 +39 +39 очень
душно
1005.9 976.2
20 18.04 штиль 0
{2}
н/о н/о +36.1 +17.1 33 +39 +39 очень
душно
1006.6 976.8
21 18.04 штиль 0
{1}
н/о н/о +32.8 +17.8 41 +37 +37 очень
душно
1007.5 977.4
22 18.04 Ю 1
{2}
н/о н/о +30.7 +20.1 53 +37 +37 очень
душно
1008.4 978.1
23 18.04 СЗ 1
{2}
н/о н/о +29.8 +20.7 58 +37 +37 очень
душно
1010.1 979.6
00 19.04 З 1
{2}
н/о н/о +26.8 +20.8 70 +34 +34 очень
душно
1010.9 980.1
01 19.04 штиль 0
{2}
н/о н/о +25.9 +20.2 71 +32 +32 очень
душно
1011.7 980.8
02 19.04 ЮЗ 1
{2}
н/о н/о +25.6 +20.7 74 +32 +32 очень
душно
1011.9 980.9
03 19.04 В 3
{6}
н/о н/о +22.4 +19.4 83 +28 +28 душно 1013.1 981.8 12
04 19.04 ЮВ 1
{4}
н/о н/о +22.5 +20.1 86 +29 +29 очень
душно
1012.6 981.3
05 19.04 ЮВ 1
{2}
н/о н/о +22.0 +20.1 89 +28 +28 душно 1012.8 981.4
07 19.04 С 1
{1}
н/о н/о +22.7 +20.9 90 +30 +30 очень
душно
1012.4 981.1
08 19.04 СЗ 1
{1}
н/о н/о +22.2 +20.4 90 +29 +29 очень
душно
1012.7 981.4
09 19.04 штиль 0
{1}
н/о н/о +22.1 +20.6 91 +28 +28 душно 1013.2 981.8
10 19.04 штиль 0
{1}
н/о н/о +22.4 +20.8 91 +29 +29 очень
душно
1013.6 982.3
11 19.04 штиль 0
{1}
н/о н/о +24.3 +21.9 86 +31 +31 очень
душно
1013.5 982.4
12 19.04 штиль 0
{2}
н/о н/о +27.1 +23.0 78 +36 +36 очень
душно
1014.1 983.2
14 19.04 СВ 1
{3}
н/о н/о +30.3 +22.8 64 +40 +40 очень
душно
1012.9 982.4
15 19.04 С 1
{4}
н/о н/о +31.9 +22.0 56 +41 +41 опасность
перегрева
1011.5 981.2
16 19.04 С 1
{3}
н/о н/о +33.0 +21.0 49 +40 +40 очень
душно
1010.3 980.1
17 19.04 СВ 1
{3}
н/о н/о +34.1 +19.6 43 +40 +40 очень
душно
1009.3 979.3
18 19.04 В 2
{3}
н/о н/о +34.1 +19.7 43 +40 +40 очень
душно
1008.4 978.4
19 19.04 СВ 2
{4}
н/о н/о +33.8 +20.4 45 +40 +40 очень
душно
1008.4 978.4
20 19.04 В 2
{4}
н/о н/о +32.7 +20.4 48 +39 +39 очень
душно
1008.8 978.6
21 19.04 В 1
{3}
н/о н/о +30.6 +19.6 52 +37 +37 очень
душно
1009.7 979.3
22 19.04 ЮВ 1
{2}
н/о н/о +29.5 +20.7 59 +37 +37 очень
душно
1010.4 979.9
23 19.04 ЮВ 1
{3}
н/о н/о +28.9 +21.4 64 +37 +37 очень
душно
1011.9 981.3
00 20.04 В 1
{3}
н/о н/о +28.5 +21.8 67 +37 +37 очень
душно
1012.3 981.6
01 20.04 В 1
{2}
н/о н/о +27.5 +22.1 72 +36 +36 очень
душно
1012.9 982.1
02 20.04 ЮВ 1
{2}
н/о н/о +26.7 +21.6 74 +34 +34 очень
душно
1013.3 982.4
03 20.04 В 1
{2}
н/о н/о +26.4 +21.3 74 +34 +34 очень
душно
1013.0 982.1
04 20.04 ЮВ 1
{2}
н/о н/о +25.6 +21.5 78 +33 +33 очень
душно
1013.3 982.3
05 20.04 ЮВ 1
{2}
н/о н/о +25.3 +21.6 80 +32 +32 очень
душно
1012.6 981.6
06 20.04 штиль 0
{2}
н/о н/о +24.9 +21.7 82 +32 +32 очень
душно
1013.3 982.2
07 20.04 ЮВ 1
{1}
н/о н/о +25.1 +22.1 83 +32 +32 очень
душно
1012.9 981.9
08 20.04 ЮВ 1
{2}
н/о н/о +24.9 +21.9 83 +32 +32 очень
душно
1013.3 982.2
09 20.04 ЮВ 1
{2}
н/о н/о +24.5 +21.8 85 +31 +31 очень
душно
1013.8 982.7
10 20.04 В 1
{2}
н/о н/о +25.0 +21.9 83 +32 +32 очень
душно
1014.5 983.4
12 20.04 В 1
{3}
н/о н/о +26.8 +21.8 74 +34 +34 очень
душно
1015.8 984.8
13 20.04 СВ 2
{3}
н/о н/о +27.7 +20.6 65 +34 +34 очень
душно
1016.0 985.1
14 20.04 СВ 1
{3}
н/о н/о +28.4 +20.6 63 +35 +35 очень
душно
1015.2 984.4
15 20.04 СВ 1
{3}
н/о н/о +28.6 +21.0 63 +36 +36 очень
душно
1014.2 983.5
16 20.04 В 1
{2}
н/о н/о +30.3 +21.4 59 +38 +38 очень
душно
1012.8 982.3
17 20.04 СВ 1
{3}
н/о н/о +31.2 +20.5 53 +38 +38 очень
душно
1011.7 981.3
18 20.04 СВ 2
{4}
н/о н/о +31.5 +18.9 47 +37 +37 очень
душно
1010.7 980.4
19 20.04 СВ 2
{4}
н/о н/о +32.0 +19.6 48 +38 +38 очень
душно
1010.4 980.1
21 20.04 В 1
{2}
н/о н/о +29.1 +20.1 58 +35 +35 очень
душно
1010.6 980.0
22 20.04 В 2
{3}
н/о н/о +28.1 +20.4 63 +35 +35 очень
душно
1011.1 980.4
23 20.04 В 1
{3}
н/о н/о +27.6 +19.8 62 +33 +33 очень
душно
1012.2 981.4
00 21.04 штиль 0
{2}
н/о н/о +25.5 +20.0 72 +31 +31 очень
душно
1013.2 982.2
01 21.04 ЮВ 1
{2}
н/о н/о +25.3 +20.4 74 +31 +31 очень
душно
1013.4 982.4
02 21.04 ЮВ 1
{2}
н/о н/о +24.3 +20.3 78 +30 +30 очень
душно
1014.2 983.0
03 21.04 Ю 1
{2}
н/о н/о +23.6 +20.3 82 +29 +29 душно 1014.2 983.0
04 21.04 Ю 1
{2}
н/о н/о +23.2 +20.4 84 +30 +30 очень
душно
1014.0 982.7
05 21.04 штиль 0
{2}
н/о н/о +22.9 +20.4 86 +30 +30 очень
душно
1013.9 982.6
08 21.04 штиль 0
{2}
н/о н/о +22.3 +20.5 90 +29 +29 очень
душно
1013.5 982.1
09 21.04 штиль 0
{1}
н/о н/о +22.0 +20.4 91 +28 +28 душно 1014.2 982.8
10 21.04 штиль 0
{1}
н/о н/о +23.0 +21.0 89 +31 +31 очень
душно
1014.6 983.3
11 21.04 Ю 1
{1}
н/о н/о +25.2 +21.8 81 +32 +32 очень
душно
1014.7 983.6
12 21.04 В 1
{3}
н/о н/о +27.5 +21.6 70 +35 +35 очень
душно
1014.7 983.8
13 21.04 СВ 1
{3}
н/о н/о +29.6 +21.5 62 +38 +38 очень
душно
1014.1 983.5
14 21.04 В 1
{3}
н/о н/о +31.6 +21.4 55 +40 +40 очень
душно
1013.0 982.6
15 21.04 СВ 2
{4}
н/о н/о +32.0 +20.2 50 +39 +39 очень
душно
1011.9 981.6
16 21.04 СВ 2
{3}
н/о н/о +32.6 +19.6 46 +38 +38 очень
душно
1010.6 980.4
17 21.04 СВ 2
{4}
н/о н/о +33.0 +19.2 44 +38 +38 очень
душно
1009.8 979.6
18 21.04 СВ 2
{4}
н/о н/о +33.4 +18.9 42 +38 +38 очень
душно
1009.0 978.9
19 21.04 СВ 2
{4}
н/о н/о +33.0 +18.7 43 +38 +38 очень
душно
1009.0 978.9
20 21.04 СВ 2
{4}
н/о н/о +31.6 +18.5 46 +36 +36 очень
душно
1009.3 979.0
21 21.04 В 1
{3}
н/о н/о +30.3 +19.0 51 +36 +36 очень
душно
1010.4 980.0
22 21.04 В 1
{2}
н/о н/о +28.7 +19.9 59 +35 +35 очень
душно
1011.2 980.6
23 21.04 штиль 0
{2}
н/о н/о +28.3 +20.5 63 +35 +35 очень
душно
1012.2 981.5
00 22.04 штиль 0
{2}
н/о н/о +26.9 +20.1 66 +33 +33 очень
душно
1012.8 981.9
01 22.04 штиль 0 н/о н/о +25.7 +20.6 73 +32 +32 очень
душно
1013.2 982.2
02 22.04 штиль 0
{1}
н/о н/о +25.8 +21.1 75 +32 +32 очень
душно
1013.7 982.7
03 22.04 В 2
{4}
н/о н/о +26.8 +20.7 69 +33 +33 очень
душно
1013.5 982.6
04 22.04 штиль 0
{3}
н/о н/о +26.0 +21.0 74 +33 +33 очень
душно
1013.4 982.4
10 22.04 ЮВ 1
{2}
н/о н/о +24.2 +21.0 82 +30 +30 очень
душно
1014.5 983.3
12 22.04 В 1
{3}
н/о н/о +28.1 +21.4 67 +36 +36 очень
душно
1014.9 984.1
13 22.04 В 1
{3}
н/о н/о +29.7 +20.4 57 +36 +36 очень
душно
1014.9 984.3
14 22.04 В 1
{3}
н/о н/о +31.3 +20.3 52 +38 +38 очень
душно
1014.1 983.6
15 22.04 В 1
{3}
н/о н/о +32.3 +20.0 48 +38 +38 очень
душно
1012.6 982.3
16 22.04 В 2
{4}
н/о н/о +32.8 +18.5 43 +38 +38 очень
душно
1011.8 981.6
18 22.04 СВ 2
{3}
н/о н/о +33.6 +18.1 40 +38 +38 очень
душно
1009.7 979.6
22 22.04 В 1
{3}
н/о н/о +29.4 +19.5 55 +35 +35 очень
душно
1011.5 980.9
23 22.04 В 1
{3}
н/о н/о +28.4 +19.7 59 +34 +34 очень
душно
1012.8 982.1

 

Местоположение метеостанции Итаобин (Минас-Жерайс, Бразилия): широта -16.58 долгота -41.48 высота над уровнем моря 268 м.

В архиве по умолчанию представлена погода в Итаобине за последнюю неделю. Архивные данные за месяц целиком и за предыдущие месяцы, начиная с января 2011 года, Вы можете получить, выбрав интересующий диапазон дат из раскрывающегося списка и нажав кнопку "Ввод!".


*Определитесь, кто Вы:
робот инопланетянин человек

Внимание! Время в таблицах - всемирное. Для получения местного времени необходимо прибавить поправку, которая равна -3 ч.

Смотрите также архив погоды в соседних городах и на ближайших метеорологических станциях:

Погода в Педра-Азуле (Минас-Жерайс, Бразилия) (68 км)
Погода в Арасуаи (Минас-Жерайс, Бразилия) (69 км)
Погода в Агуас-Вермельясе (Минас-Жерайс, Бразилия) (92 км)
Погода в Альменаре (Минас-Жерайс, Бразилия) (97 км)
Погода в Салинасе (Минас-Жерайс, Бразилия) (101 км)
Погода в Рио-Пардо-де-Минасе (Минас-Жерайс, Бразилия) (139 км)
Погода в Теофилу-Отони (Минас-Жерайс, Бразилия) (147 км)
Погода в Капелинье (Минас-Жерайс, Бразилия) (157 км)
Погода в Серра-дуз-Айморесе (Баия, Бразилия) (188 км)
Погода в Витория-да-Конкисте (Баия, Бразилия) (192 км)

Пояснения к столбцам:

Ветер - указаны скорость ветра в м/с - средняя за 10 мин, порывы в срок и между сроками (в фигурных скобках) и направление, откуда дует ветер: С - северный, СВ - северо-восточный, В - восточный, ЮВ - юго-восточный, Ю - южный, ЮЗ - юго-западный, З - западный, СЗ - северо-западный.
Видимость - горизонтальная дальность видимости в метрах или километрах. При видимости от 1 до 10 км при отсутствии осадков обычно наблюдается дымка, при ухудшении видимости до 1 км и менее - туман. В сухую погоду видимость может ухудшаться дымом, пылью или мглою.
Явления - указаны атмосферные явления, наблюдавшиеся в срок или в последний час перед сроком; фигурными скобками обозначены явления, наблюдавшиеся между сроками (за 1-3 часа до срока); квадратными скобками обозначены град или гололедные отложения с указанием их диаметра в мм.
Облачность - указаны через наклонную черту общая и нижняя облачность в баллах и высота нижней границы облаков в метрах; квадратными скобками обозначены формы облаков: Ci - перистые, Cs - перисто-слоистые, Cc - перисто-кучевые, Ac - высококучевые, As - высокослоистые, Sc - слоисто-кучевые, Ns - слоисто-дождевые, Cu - кучевые, Cb - кучево-дождевые. Подробнее классификацию облаков см. в Атласе облаков (PDF).
T - Температура воздуха - температура, измеренная на высоте 2 м над землей.
Td - Температура точки росы - температура, при понижении до которой содержащийся в воздухе водяной пар достигнет насыщения.
f - Относительная влажность воздуха - влажноcть воздуха, измеренная на высоте 2 м над землей.
Te - Эффективная температура - температура, которую ощущает одетый по сезону человек в тени. Характеристика душности погоды. При расчете учитывается влияние влажности воздуха и скорости ветра на теплоощущения человека.
Tes - Эффективная температура на солнце - температура, которую ощущает человек, с поправкой на солнечный нагрев. Характеристика знойности погоды. Зависит от высоты солнца над горизонтом, облачности и скорости ветра. Ночью, в пасмурную погоду, а также при ветре 12 м/с и более поправка равна нулю.
P - Атмосферное давление - приведенное к уровню моря атмосферное давление.
Po - Атмосферное давление - измеренное на уровне метеостанции атмосферное давление.
Tmin - Минимальная температура - минимум температуры воздуха на высоте 2 м над землей.
Tmax - Максимальная температура - максимум температуры воздуха на высоте 2 м над землей.
R - Количество осадков - Количество выпавших осадков за период времени, мм. При наведении курсора мыши на число - период времени, за который выпало указанное количество осадков.
R24 - Количество осадков - Количество выпавших осадков за 24 часа, мм.
S - Снежный покров - Высота снежного покрова, см. При наведении курсора мыши на число - состояние снежного покрова и степень покрытия местности в баллах.